This is the latest recevied weather packets stored in our database for station/object WY7EM. If no packets are shown the sender has not sent any weather packets the latest 10 day(s).
| Time | Temp. | Humidity | Pressure | Rain* | Wind** | Luminosity | Snow |
|---|---|---|---|---|---|---|---|
| 1777925814 | 22.78° C | 22% | 1009.8 hPa | 0 mm | - | 481 W/m² | - |
| 1777925512 | 22.78° C | 22% | 1009.9 hPa | 0 mm | - | 420 W/m² | - |
| 1777925209 | 22.78° C | 22% | 1009.8 hPa | 0 mm | - | 508 W/m² | - |
| 1777924906 | 22.22° C | 22% | 1010.1 hPa | 0 mm | - | 393 W/m² | - |
| 1777924601 | 22.22° C | 23% | 1010.1 hPa | 0 mm | - | 549 W/m² | - |
| 1777924298 | 22.78° C | 23% | 1010.3 hPa | 0 mm | - | 535 W/m² | - |
| 1777923995 | 22.22° C | 24% | 1010.4 hPa | 0 mm | - | 462 W/m² | - |
| 1777923691 | 22.22° C | 25% | 1010.2 hPa | 0 mm | - | 390 W/m² | - |
| 1777923387 | 22.22° C | 23% | 1010.2 hPa | 0 mm | - | 389 W/m² | - |
| 1777923086 | 23.33° C | 24% | 1010.6 hPa | 0 mm | - | 441 W/m² | - |
| 1777922783 | 22.78° C | 26% | 1010.4 hPa | 0 mm | - | 457 W/m² | - |
| 1777922481 | 22.22° C | 29% | 1010.5 hPa | 0 mm | - | 880 W/m² | - |
| 1777922179 | 21.67° C | 30% | 1010.7 hPa | 0 mm | - | 562 W/m² | - |
| 1777921875 | 21.67° C | 29% | 1010.5 hPa | 0 mm | - | 573 W/m² | - |
| 1777921571 | 22.22° C | 29% | 1010.6 hPa | 0 mm | - | 717 W/m² | - |
| 1777921268 | 21.67° C | 29% | 1010.5 hPa | 0 mm | - | 375 W/m² | - |
| 1777920964 | 21.67° C | 29% | 1011 hPa | 0 mm | - | 493 W/m² | - |
| 1777920661 | 22.22° C | 31% | 1011 hPa | 0 mm | - | 416 W/m² | - |
| 1777920357 | 21.67° C | 31% | 1011.1 hPa | 0 mm | - | 422 W/m² | - |
| 1777920052 | 21.11° C | 32% | 1011.3 hPa | 0 mm | - | 406 W/m² | - |
| 1777919749 | 21.67° C | 33% | 1011.1 hPa | 0 mm | - | 404 W/m² | - |
| 1777919448 | 21.11° C | 35% | 1011.1 hPa | 0 mm | - | 449 W/m² | - |
| 1777919144 | 20° C | 37% | 1011.4 hPa | 0 mm | - | 407 W/m² | - |
| 1777918842 | 20.56° C | 36% | 1011.5 hPa | 0 mm | - | 395 W/m² | - |
| 1777918539 | 20.56° C | 36% | 1011.4 hPa | 0 mm | - | 415 W/m² | - |
* Rain latest hour (hover to see other rain measurements)
** Current wind speed in m/s (hover to see current wind gust speed)